Volver al catálogo

CZ-6A DEB

ActivoSSO
NORAD 56592·DEBRIS·🇨🇳 China

Lanzado Nov 11, 2022 desde Taiyuan Satellite Launch Center

Loading…

Próximos Pases (próximas 24 horas)

TLE

ActualizadoSource: Space-Track

Época: Sep 13, 2026, 07:33 UTC

1 56592U 22151ADQ 26256.31508643  .00001518  00000-0  71355-3 0  9998
2 56592  98.8173 268.5874 0034704  50.2136 310.2087 14.21208407186601

Sigue CZ-6A DEB en tiempo real con AllMySat

Download on the App Store